Location: Kergrach
(48.3833°N, 4.5167°W)
Time: 18:00:56
(UTC+00:00)

ATLAS 2AS CENTAUR R/B - Pass Details

Date: 18 February 2020
Orbit: 929 x 1283 km, 63.7° (Epoch: 26 March)

Event Time Altitude Azimuth Distance (km) Brightness Sun altitude
Exits shadow 03:26:51 26° 345° (NNW) 2,259 4.4 -38.6°
Maximum altitude 03:27:33 26° 353° (N) 2,239 4.4 -38.5°
Drops below altitude 10° 03:33:52 10° 48° (NE) 3,166 5.9 -37.5°
Sets 03:37:08 0° 61° (ENE) 4,079 6.7 -37.1°
